Chino, CA

11:55 PM PST on December 10, 2017 (GMT -0800)
Chino

Weather History for KCNO - November, 2013

Change the Weather History Date:

Thursday, November 21, 2013

  Actual Average Record
Temperature  
Mean Temperature 59 °F -  
Max Temperature 64 °F 69 °F 91 °F (2017)
Min Temperature 54 °F 40 °F 37 °F (1998)
Degree Days  
Heating Degree Days 6    
Growing Degree Days 9 (Base 50)    
Moisture  
Dew Point 56 °F    
Average Humidity 93    
Maximum Humidity 100    
Minimum Humidity 73    
Precipitation  
Precipitation 0.10 in - - ()
Sea Level Pressure  
Sea Level Pressure 29.87 in    
Wind  
Wind Speed 2 mph (SW)    
Max Wind Speed 15 mph    
Max Gust Speed -    
Visibility 5 miles    
Events Rain    
Averages and records for this station are not official NWS values.
T = Trace of Precipitation, MM = Missing Value Source: NWS Daily Summary

Daily Weather History Graph

Daily Weather History Graph

Search for Another Location

Airport or City:

Trip Planner

Search our weather history database for the weather conditions in past years. The results will help you decide how hot, cold, wet, or windy it might be!

Date:

Astronomy

Nov. 21, 2013 Rise Set
Actual Time 6:28 AM PST 4:43 PM PST
Civil Twilight 6:02 AM PST 5:10 PM PST
Nautical Twilight 5:31 AM PST 5:41 PM PST
Astronomical Twilight 5:01 AM PST 6:11 PM PST
Moon 8:23 PM PST (11/21) 9:39 AM PST (11/21)
Length of Visible Light 11h 08m
Length of Day
10h 14m
Waning Gibbous, 84% of the Moon is Illuminated
Nov 21
Waning Gibbous
Nov 25
Last Quarter
Dec 2
New
Dec 9
First Quarter
Dec 17
Full

Hourly Weather History & Observations

Time (PST) Temp. Dew Point Humidity Pressure Visibility Wind Dir Wind Speed Gust Speed Precip Events Conditions
12:02 AM 57.2 °F 55.4 °F 94% 29.91 in 2.5 mi Calm Calm - 0.00 in Rain Light Rain
12:09 AM 57.2 °F 55.4 °F 94% 29.91 in 2.5 mi Calm Calm - 0.00 in Rain Light Rain
12:53 AM 57.0 °F 55.9 °F 96% 29.89 in 2.5 mi Calm Calm - 0.01 in Rain Light Rain
1:03 AM 57.2 °F 55.4 °F 94% 29.90 in 3.0 mi Calm Calm - 0.00 in Rain Rain
1:10 AM 57.2 °F 55.4 °F 94% 29.89 in 2.5 mi Calm Calm - 0.00 in Rain Light Rain
1:23 AM 57.2 °F 55.4 °F 94% 29.89 in 2.5 mi Calm Calm - 0.01 in Rain Light Rain
1:32 AM 57.2 °F 57.2 °F 100% 29.89 in 3.0 mi Calm Calm - 0.01 in Rain Light Rain
1:38 AM 57.2 °F 57.2 °F 100% 29.88 in 2.5 mi East 5.8 mph - 0.01 in Rain Light Rain
1:53 AM 57.0 °F 57.0 °F 100% 29.87 in 2.5 mi East 4.6 mph - 0.01 in   Overcast
2:53 AM 57.0 °F 57.0 °F 100% 29.86 in 1.8 mi Calm Calm - 0.01 in Rain Light Rain
3:02 AM 57.2 °F 57.2 °F 100% 29.87 in 2.0 mi Calm Calm - 0.00 in Rain Light Rain
3:16 AM 57.2 °F 55.4 °F 94% 29.87 in 1.8 mi Variable 3.5 mph - 0.00 in Rain Light Rain
3:35 AM 57.2 °F 57.2 °F 100% 29.86 in 2.0 mi Calm Calm - 0.00 in Rain Light Rain
3:53 AM 57.0 °F 55.9 °F 96% 29.86 in 2.0 mi Calm Calm - 0.00 in Rain Light Rain
4:53 AM 57.0 °F 55.9 °F 96% 29.85 in 2.5 mi NNE 3.5 mph - 0.00 in   Overcast
5:32 AM 57.2 °F 57.2 °F 100% 29.85 in 3.0 mi Variable 4.6 mph - 0.00 in   Overcast
5:53 AM 57.0 °F 57.0 °F 100% 29.85 in 2.5 mi Calm Calm - 0.00 in Rain Light Rain
6:14 AM 57.2 °F 57.2 °F 100% 29.86 in 3.0 mi Calm Calm - 0.01 in Rain Light Rain
6:21 AM 57.2 °F 57.2 °F 100% 29.86 in 2.0 mi Calm Calm - 0.01 in Rain Light Rain
6:28 AM 57.2 °F 57.2 °F 100% 29.86 in 1.8 mi NNE 3.5 mph - 0.02 in Rain Light Rain
6:32 AM 57.2 °F 57.2 °F 100% 29.86 in 2.0 mi Calm Calm - 0.02 in Rain Light Rain
6:53 AM 57.9 °F 57.0 °F 97% 29.86 in 1.8 mi Calm Calm - 0.06 in Rain Light Rain
7:53 AM 57.9 °F 57.9 °F 100% 29.87 in 1.0 mi Calm Calm - 0.00 in Rain Light Rain
8:53 AM 59.0 °F 57.9 °F 96% 29.88 in 2.0 mi ESE 3.5 mph - 0.01 in Rain Light Rain
9:06 AM 59.0 °F 59.0 °F 100% 29.89 in 6.0 mi Calm Calm - 0.00 in   Overcast
9:53 AM 61.0 °F 59.0 °F 93% 29.88 in 8.0 mi South 6.9 mph - 0.00 in Rain Light Rain
10:41 AM 62.6 °F 57.2 °F 82% 29.88 in 9.0 mi SW 6.9 mph - 0.00 in   Overcast
10:53 AM 62.1 °F 59.0 °F 90% 29.87 in 9.0 mi WSW 9.2 mph - 0.00 in   Mostly Cloudy
11:53 AM 62.1 °F 57.9 °F 86% 29.86 in 10.0 mi SW 11.5 mph - N/A   Overcast
12:53 PM 63.0 °F 57.0 °F 81% 29.84 in 10.0 mi WSW 11.5 mph - N/A   Mostly Cloudy
1:53 PM 64.0 °F 55.9 °F 75% 29.83 in 10.0 mi SW 13.8 mph - N/A   Mostly Cloudy
2:53 PM 64.0 °F 55.0 °F 73% 29.85 in 10.0 mi SW 15.0 mph - N/A   Mostly Cloudy
3:53 PM 60.8 °F 55.4 °F 82% 29.86 in 10.0 mi SW 6.9 mph - N/A   Mostly Cloudy
4:53 PM 59.0 °F 53.1 °F 81% 29.86 in 10.0 mi WSW 9.2 mph - N/A   Mostly Cloudy
5:53 PM 57.9 °F 54.0 °F 87% 29.88 in 10.0 mi West 4.6 mph - N/A   Overcast
6:53 PM 57.0 °F 53.1 °F 87% 29.89 in 10.0 mi West 5.8 mph - N/A   Mostly Cloudy
7:53 PM 55.9 °F 53.1 °F 90% 29.89 in 10.0 mi Calm Calm - N/A   Mostly Cloudy
8:53 PM 55.0 °F 52.0 °F 89% 29.90 in 9.0 mi West 3.5 mph - N/A   Mostly Cloudy
9:53 PM 55.0 °F 53.1 °F 93% 29.90 in 9.0 mi Calm Calm - N/A   Mostly Cloudy
10:53 PM 54.0 °F 52.0 °F 93% 29.90 in 10.0 mi Calm Calm - N/A   Mostly Cloudy
11:53 PM 54.0 °F 52.0 °F 93% 29.88 in 10.0 mi SE 5.8 mph - N/A   Partly Cloudy